STARLINK-2649 (48680 NORAD) Tracking and Keplerian Element Data

This shows tracking and keplerian element data for the satellite.

Feedback or suggestion? Click here.




ElementValue
Catalog48680
NameSTARLINK-2649
Epoch Orbit177
Epoch Day170.58334491
Epoch Year2021
RAAN306.2539
Inclination53.0477
Eccentricity0.0001693
Argument of Perigee57.5775
Mean Anonmoly69.8881
Mean Motion15.73239722
Decay Rate-5.956E-05
L11 48680U 21044AU 21170.58334491 -.00005956 00000-0 -37967-4 0 9998
L22 48680 53.0477 306.2539 0001693 57.5775 69.8881 15.73239722 1773

Live tracking and technical data element details for STARLINK-2649 (NORAD 48680). STARLINK-2649 can be tracked NOW for your location showing map with azimuth and elevation plus other details from your city location.

Track the satellite on the map from your city or location and see movement details for azimuth, elevation, latitude, longitude, range, height, and movement on the map or in text.







IsCatalogInMostPopularTable: catalog: 48680, numindb: 5
Update: records affected: 1



GetName: 48680 STARLINK-2649

Hit Count: updated at: Mon, 21 Jun 2021 03:09:34 GMT